Wind_Speed
37 38 39 39 40 40 41 42 42 41 41 42 43 42 42 41 42 42 43 43 44 43 43 43 42 42 42 42 42 41 41 41 41 41 41 41 40 40 39 39 38 37 36 36
36 36 37 38 39 39 41 42 42 42 41 42 42 42 42 42 42 42 43 44 43 43 43 43 42 42 42 42 42 42 42 42 42 41 42 42 41 41 40 40 39 38 38 37
34 34 35 36 38 39 40 40 41 42 40 41 42 43 43 42 42 42 43 44 44 44 44 44 43 43 42 42 42 42 42 43 42 42 42 43 43 42 42 41 40 40 39 39
32 32 33 35 35 37 38 38 39 39 40 40 42 43 43 43 43 43 43 43 44 44 44 45 44 44 43 43 43 42 42 43 43 43 43 43 43 43 43 43 42 41 41 41
29 29 30 31 32 33 35 36 37 37 39 40 40 42 43 43 43 43 43 44 44 44 44 44 44 44 44 44 44 43 43 44 43 43 43 43 43 44 44 44 43 43 42 42
28 28 28 28 29 30 33 34 36 37 38 40 39 40 42 42 42 42 43 43 44 44 44 44 44 44 44 44 44 44 44 44 44 44 43 43 43 44 45 44 44 43 44 44
26 26 26 26 27 28 31 33 34 36 37 39 38 39 40 39 40 40 41 43 43 43 43 43 44 44 44 44 45 45 45 45 45 44 44 44 44 45 45 46 45 45 44 44
24 24 24 24 24 26 27 31 33 34 36 36 37 38 38 38 38 39 40 41 42 43 43 43 44 44 45 44 45 45 46 46 46 45 45 45 45 45 45 46 46 45 45 44
22 22 22 22 23 24 25 28 30 32 34 35 35 37 37 37 38 39 39 40 41 42 42 43 44 45 45 45 45 46 46 46 47 46 46 46 46 45 45 45 45 45 45 45
20 21 21 21 22 23 24 25 27 31 32 34 34 35 35 35 37 38 38 39 40 41 42 43 44 44 45 45 45 46 47 47 47 47 46 46 46 45 45 45 45 45 45 45
19 20 20 20 21 22 22 24 26 29 31 32 33 34 34 35 36 36 37 38 39 40 41 41 42 43 44 44 45 46 46 46 46 47 47 46 46 45 45 45 45 45 45 45
18 19 19 19 20 20 22 22 24 26 28 29 30 32 31 34 35 35 36 36 37 37 38 39 40 41 42 42 43 44 44 45 45 46 46 46 45 45 44 45 46 45 45 45
16 17 19 19 19 20 21 22 23 26 28 29 29 29 28 31 33 34 34 35 35 35 36 38 39 40 40 41 41 42 42 43 44 45 46 46 46 45 45 44 45 46 46 45
15 16 17 18 19 20 21 22 23 24 26 28 29 28 27 29 31 32 33 34 35 35 36 36 37 38 38 39 40 40 41 41 42 43 45 45 46 47 46 45 45 45 45 45
16 16 17 18 19 19 20 21 22 23 24 26 26 26 25 25 26 27 29 31 33 34 35 37 37 37 37 39 39 39 40 41 41 42 43 44 45 46 46 46 46 46 46 46
16 17 17 18 18 18 19 20 20 21 23 24 25 26 26 25 24 25 25 27 29 31 33 34 36 37 37 37 38 38 39 40 40 41 41 42 43 44 45 46 46 46 46 46
15 16 16 17 18 18 19 18 19 20 21 23 23 23 25 26 26 26 25 25 26 27 30 31 33 35 37 37 37 38 38 39 40 40 41 42 43 43 43 44 45 45 45 45
14 14 14 15 17 18 17 17 18 18 19 21 22 22 23 25 25 25 26 26 26 27 28 29 30 32 34 36 36 37 38 39 39 39 40 41 42 42 42 43 43 44 45 45
14 14 14 14 16 16 16 16 16 17 17 19 20 21 21 22 24 24 25 26 27 27 28 29 29 30 32 33 34 36 38 39 39 38 39 39 40 41 41 42 42 43 44 44
13 13 14 14 15 15 14 15 17 18 17 17 18 19 20 20 22 22 24 24 25 26 27 28 28 29 30 31 31 33 35 36 37 37 37 37 38 39 40 40 41 42 42 42
12 13 13 14 14 13 13 14 16 18 18 18 18 19 20 20 21 21 23 23 23 24 25 26 27 28 29 29 29 29 31 33 33 34 35 36 35 36 36 37 38 39 41 41
12 12 13 14 15 14 13 13 14 16 18 19 19 19 19 20 21 21 22 22 22 23 24 24 25 26 27 27 27 27 28 30 31 31 33 33 33 34 34 35 36 37 38 40
12 12 13 14 15 15 14 14 15 16 17 18 19 19 19 19 20 20 21 21 22 22 23 24 24 25 25 26 27 27 27 28 29 30 30 31 33 33 34 34 34 35 36 37
13 13 14 14 14 14 14 14 14 15 16 16 18 19 19 19 19 19 20 21 21 22 23 23 24 24 24 25 26 27 27 27 28 28 29 30 31 32 33 33 34 34 34 36
14 14 14 14 14 14 14 14 14 15 16 16 17 18 19 19 19 19 19 20 21 21 22 23 24 24 24 25 26 27 27 27 28 28 28 29 29 29 31 32 33 33 33 35
13 13 13 13 13 13 13 13 14 15 16 16 17 17 18 19 19 19 19 19 20 21 21 22 23 23 24 25 25 25 26 26 27 27 28 28 29 29 29 30 31 32 32 33
Wind_Direction
265 261 258 257 255 253 251 250 249 248 247 246 246 244 243 243 242 240 238 238 238 238 238 239 239 239 240 241 241 242 242 243 243 244 243 243 245 246 247 248 249 250 251 252
266 262 259 256 252 250 250 249 248 247 247 247 245 244 242 242 241 240 238 237 237 237 237 238 239 239 240 240 241 242 242 243 243 244 244 243 244 245 247 248 249 250 250 252
267 264 260 255 252 249 249 249 248 247 247 247 245 243 241 241 240 239 238 237 237 237 237 238 239 240 241 241 241 241 243 243 244 244 244 244 244 245 246 247 248 248 250 251
266 262 259 255 253 250 248 247 248 247 246 245 243 243 240 241 241 240 239 238 238 238 238 238 238 239 240 241 241 241 242 243 244 244 245 245 245 245 245 246 247 248 250 251
266 262 259 256 254 251 247 246 246 245 244 244 242 243 242 242 241 241 241 240 240 239 239 239 239 239 240 240 241 241 242 243 244 245 245 246 245 245 245 246 247 248 249 251
266 263 261 258 256 253 247 245 245 244 243 243 242 243 242 241 242 241 241 242 242 242 241 241 241 240 241 241 241 242 243 244 245 245 245 246 246 245 246 247 247 248 249 250
265 262 261 258 254 251 246 244 244 243 242 243 241 243 243 241 242 242 242 242 243 243 243 242 242 242 242 242 242 242 243 244 245 245 245 246 247 247 247 247 248 248 250 250
267 264 261 259 256 251 248 245 244 245 246 245 243 243 243 242 243 243 243 244 243 243 243 243 243 243 243 242 243 243 243 243 244 245 246 247 247 247 247 248 248 248 248 249
269 266 262 259 254 250 248 244 244 245 246 246 245 243 243 242 243 244 244 244 244 244 244 243 243 244 243 243 243 244 244 244 243 244 245 246 247 248 248 247 248 248 248 249
272 267 263 260 254 250 248 246 244 241 243 245 245 244 243 241 242 243 245 245 245 244 244 244 244 244 243 244 244 244 244 244 243 243 244 245 247 247 248 248 248 248 248 248
272 266 262 257 254 252 250 247 245 244 244 245 247 247 246 245 244 244 245 246 246 245 244 244 244 243 244 244 243 243 244 244 244 243 243 244 246 247 248 248 247 248 248 248
273 265 261 257 256 254 251 249 247 245 244 245 248 249 249 248 247 247 247 248 248 246 245 243 243 243 243 244 244 244 244 245 244 243 243 244 245 247 248 248 248 247 247 248
274 266 259 254 253 252 250 248 247 246 246 245 246 248 249 250 250 250 249 248 247 246 244 244 244 244 243 243 243 244 244 244 244 243 244 244 245 246 247 247 248 247 247 247
268 265 261 256 254 255 250 248 248 248 247 245 246 248 249 250 250 250 249 249 247 245 244 244 245 244 243 243 243 243 243 243 243 243 244 245 245 245 246 247 247 247 247 247
268 265 263 257 254 253 251 249 248 248 247 246 246 248 248 251 251 250 249 248 247 246 246 245 245 245 245 244 243 242 243 243 243 244 245 245 245 245 246 247 248 247 246 246
275 270 263 257 254 254 251 248 249 248 249 249 248 248 248 252 251 249 248 249 248 248 248 247 246 245 245 245 243 242 242 243 243 244 245 246 246 246 246 246 246 247 246 245
277 273 265 259 257 256 254 250 250 249 248 250 251 251 252 252 252 250 250 251 250 250 248 247 246 245 244 243 243 244 244 243 243 245 246 247 246 246 246 245 245 245 244 244
278 273 268 264 262 262 258 254 252 253 251 250 251 251 251 252 250 252 253 252 252 251 248 247 247 246 245 243 243 244 243 243 244 245 246 247 246 245 245 245 245 245 244 244
277 273 271 268 266 265 262 258 255 255 253 251 251 252 254 254 251 251 254 255 255 254 252 249 247 248 247 245 245 245 244 244 245 246 247 247 247 246 247 247 246 245 245 244
277 272 272 273 272 271 268 263 258 257 255 252 254 254 255 257 255 253 254 255 255 255 253 249 248 249 248 247 246 246 246 246 245 245 245 246 247 247 247 246 245 245 244 243
279 275 270 271 274 277 277 271 264 261 259 258 258 258 258 259 259 259 257 254 254 254 253 250 249 250 248 247 247 246 247 246 245 244 243 244 245 246 245 244 243 244 245 245
288 279 273 273 274 277 281 275 271 269 264 262 260 258 258 258 258 258 257 255 254 254 252 249 250 251 249 247 246 245 246 245 245 244 244 242 241 242 242 242 243 243 245 245
288 281 276 276 277 276 276 278 275 274 270 266 262 262 262 261 260 259 257 257 257 255 250 249 250 250 249 249 247 245 245 246 245 244 243 241 240 241 242 243 244 244 244 245
289 284 281 281 279 276 274 276 277 275 275 272 267 265 265 265 264 263 259 256 256 255 253 251 248 249 250 248 247 246 246 246 246 246 244 242 240 241 242 243 243 244 243 245
296 290 285 283 282 278 275 273 272 274 277 275 272 268 266 265 265 266 262 258 257 255 254 254 251 249 249 249 248 247 248 247 246 245 243 243 243 242 243 244 244 244 244 246
294 292 288 285 281 280 278 276 274 274 277 276 273 271 268 267 266 264 263 262 260 258 257 255 252 251 251 251 250 249 248 247 246 244 243 244 245 245 245 245 246 246 246 246
Height
5634 5635 5636 5638 5640 5642 5644 5647 5650 5655 5657 5660 5664 5669 5673 5676 5679 5684 5688 5692 5696 5701 5705 5709 5714 5718 5721 5725 5729 5732 5736 5739 5742 5745 5748 5751 5754 5757 5760 5762 5765 5767 5770 5772
5622 5623 5626 5626 5627 5629 5631 5634 5638 5642 5646 5649 5652 5657 5661 5664 5668 5672 5677 5681 5686 5690 5695 5699 5703 5708 5712 5715 5719 5722 5726 5729 5732 5735 5738 5742 5745 5748 5751 5753 5756 5758 5761 5763
5611 5613 5613 5613 5615 5617 5619 5623 5627 5631 5635 5637 5641 5645 5649 5653 5656 5661 5666 5670 5675 5680 5685 5689 5693 5697 5701 5705 5709 5712 5715 5719 5722 5725 5728 5732 5735 5738 5741 5744 5746 5749 5751 5753
5599 5601 5601 5602 5604 5606 5609 5613 5616 5619 5623 5625 5629 5632 5638 5642 5645 5650 5655 5660 5665 5669 5674 5678 5682 5686 5690 5694 5698 5702 5705 5708 5711 5715 5718 5721 5725 5728 5731 5733 5736 5739 5742 5744
5589 5590 5590 5591 5594 5596 5599 5602 5605 5608 5611 5614 5618 5622 5627 5630 5634 5640 5645 5650 5654 5659 5663 5667 5671 5675 5679 5683 5687 5691 5694 5697 5701 5704 5707 5711 5714 5717 5720 5723 5726 5729 5731 5733
5580 5581 5581 5583 5585 5586 5589 5592 5595 5597 5600 5604 5609 5612 5615 5620 5625 5630 5634 5638 5643 5647 5652 5656 5660 5664 5668 5672 5675 5679 5683 5686 5690 5693 5696 5700 5703 5706 5709 5712 5715 5718 5721 5723
5571 5572 5573 5574 5576 5577 5580 5583 5586 5588 5590 5594 5599 5601 5605 5610 5614 5618 5622 5627 5631 5635 5640 5644 5648 5652 5656 5660 5664 5668 5671 5675 5678 5682 5685 5688 5691 5695 5698 5701 5704 5707 5709 5712
5563 5564 5565 5566 5567 5569 5571 5574 5577 5580 5582 5585 5588 5590 5596 5600 5603 5607 5611 5615 5619 5624 5628 5632 5636 5640 5645 5649 5652 5656 5659 5663 5667 5670 5673 5677 5680 5683 5686 5689 5692 5695 5698 5701
5556 5557 5558 5559 5560 5562 5563 5565 5569 5571 5572 5576 5578 5581 5586 5590 5593 5596 5601 5605 5608 5612 5616 5620 5624 5628 5633 5637 5640 5644 5647 5651 5655 5658 5661 5665 5668 5671 5674 5678 5681 5684 5686 5689
5549 5550 5552 5553 5554 5554 5556 5558 5560 5562 5564 5566 5569 5573 5577 5580 5583 5587 5590 5594 5597 5601 5605 5609 5612 5616 5620 5624 5627 5631 5634 5638 5642 5646 5649 5653 5656 5659 5663 5666 5669 5672 5675 5677
5543 5544 5545 5546 5546 5548 5550 5551 5552 5554 5557 5560 5561 5567 5569 5572 5575 5578 5581 5583 5586 5590 5594 5597 5601 5604 5608 5611 5615 5618 5622 5626 5629 5633 5637 5641 5644 5648 5651 5654 5657 5660 5663 5666
5537 5537 5538 5540 5541 5541 5543 5544 5546 5548 5550 5552 5555 5560 5560 5563 5566 5568 5571 5574 5576 5579 5583 5586 5589 5593 5596 5599 5603 5606 5610 5613 5617 5621 5625 5629 5632 5636 5639 5642 5646 5648 5651 5654
5532 5532 5532 5534 5536 5536 5536 5537 5539 5541 5543 5545 5547 5552 5552 5555 5557 5559 5562 5564 5567 5569 5572 5575 5578 5581 5585 5588 5591 5594 5598 5601 5605 5609 5613 5617 5620 5624 5627 5630 5633 5636 5639 5643
5526 5526 5527 5528 5528 5529 5530 5531 5532 5534 5535 5537 5539 5542 5545 5546 5548 5551 5553 5555 5557 5559 5562 5564 5567 5570 5573 5576 5580 5583 5586 5590 5593 5597 5601 5605 5608 5612 5615 5618 5621 5624 5628 5631
5521 5521 5521 5522 5522 5523 5524 5525 5527 5528 5529 5530 5533 5535 5537 5538 5540 5542 5543 5545 5547 5550 5552 5554 5556 5559 5562 5565 5569 5572 5575 5579 5582 5586 5589 5593 5596 5599 5603 5606 5609 5612 5616 5619
5516 5516 5516 5517 5517 5518 5518 5520 5521 5521 5522 5524 5526 5528 5529 5530 5532 5533 5535 5536 5538 5540 5542 5544 5546 5549 5552 5555 5558 5561 5564 5568 5571 5574 5577 5581 5584 5587 5590 5594 5597 5600 5604 5607
5512 5512 5512 5512 5512 5513 5514 5514 5515 5515 5516 5518 5519 5521 5522 5523 5525 5526 5527 5529 5530 5531 5533 5535 5537 5539 5542 5545 5548 5551 5554 5557 5560 5563 5566 5569 5572 5575 5579 5582 5585 5588 5592 5595
5508 5507 5507 5507 5508 5508 5510 5509 5509 5510 5510 5511 5512 5514 5515 5516 5517 5518 5519 5521 5522 5523 5524 5526 5528 5530 5532 5535 5538 5541 5544 5547 5550 5552 5555 5558 5560 5564 5567 5570 5573 5577 5580 5584
5504 5503 5503 5503 5502 5502 5504 5504 5504 5504 5505 5506 5506 5507 5508 5509 5510 5512 5512 5513 5514 5515 5516 5517 5519 5521 5523 5525 5528 5531 5534 5537 5539 5542 5544 5547 5549 5552 5556 5559 5562 5565 5569 5573
5500 5499 5500 5498 5498 5498 5500 5499 5499 5500 5500 5500 5500 5501 5501 5502 5504 5506 5505 5506 5506 5507 5508 5509 5511 5513 5515 5517 5519 5521 5524 5526 5529 5531 5534 5536 5538 5541 5544 5547 5551 5554 5558 5562
5496 5495 5495 5494 5494 5494 5494 5493 5494 5495 5495 5495 5494 5495 5495 5495 5496 5498 5498 5498 5499 5500 5500 5501 5503 5505 5507 5509 5510 5513 5515 5517 5519 5521 5524 5526 5529 5531 5534 5537 5540 5544 5548 5551
5492 5491 5491 5490 5490 5492 5489 5489 5489 5488 5488 5488 5488 5489 5489 5489 5490 5490 5491 5491 5492 5493 5493 5494 5496 5497 5499 5501 5503 5505 5506 5508 5510 5512 5514 5517 5519 5522 5525 5527 5531 5534 5537 5541
5488 5488 5486 5486 5487 5485 5484 5483 5483 5482 5482 5482 5482 5482 5482 5483 5483 5484 5484 5485 5485 5486 5487 5488 5489 5490 5491 5493 5495 5497 5499 5500 5501 5503 5505 5507 5511 5513 5516 5519 5522 5524 5527 5530
5484 5483 5482 5481 5480 5480 5479 5479 5478 5477 5477 5476 5476 5476 5476 5476 5476 5477 5478 5478 5479 5479 5480 5481 5482 5483 5485 5486 5487 5489 5491 5492 5494 5495 5497 5499 5502 5504 5507 5510 5513 5515 5518 5520
5480 5479 5478 5477 5476 5475 5475 5474 5473 5472 5472 5471 5471 5470 5470 5470 5470 5471 5471 5472 5472 5473 5473 5474 5475 5476 5477 5479 5480 5482 5483 5484 5486 5488 5490 5492 5494 5496 5498 5501 5503 5506 5508 5511
5476 5475 5474 5473 5472 5471 5470 5469 5468 5468 5467 5466 5465 5465 5464 5464 5464 5464 5465 5465 5466 5466 5467 5467 5468 5469 5470 5471 5473 5474 5475 5477 5478 5480 5482 5484 5486 5488 5490 5492 5494 5496 5499 5501